Regional Weather Roundup
Issued by NWS State College, PA

Home | Current Version | Previous Version | Text Only | Print | Product List | Glossary On
Versions: 1 2 3 4 5 6 7 8 9 10 11 12 13 14 15 16 17 18 19 20 21 22 23 24 25 26 27 28 29 30 31 32 33 34 35 36 37 38 39 40 41 42 43 44 45 46 47 48 49 50
000
ASUS41 KCTP 270710
RWRCTP

REGIONAL WEATHER ROUNDUP
NATIONAL WEATHER SERVICE STATE COLLEGE PA
300 AM EDT THU AUG 27 2015

Note: "fair" indicates few or no clouds below 12,000 feet with no
significant weather and/or obstructions to visibility.

* = STATION THAT DOES NOT REPORT PRECIPITATION /E.G. RAIN...SNOW...ETC/
    THUNDER OR FOG.

PAZ002>004-007>009-013>016-020>023-029>032-270800-
WESTERN PENNSYLVANIA

CITY           SKY/WX    TMP DP  RH WIND       PRES   REMARKS
ERIE           CLOUDY    63  55  75 NW5       30.11F
MEADVILLE      CLOUDY    58  55  90 CALM      30.13S
FRANKLIN*      CLOUDY    55  54  94 W5        30.15S
NEW CASTLE     PTSUNNY   59  58  96 CALM      30.15S
BEAVER COUNTY  NOT AVBL
BUTLER*        CLOUDY    57  54  88 W3        30.15S
PITTSBURGH INT CLOUDY    60  54  80 CALM      30.13F
PITTSBURGH     CLOUDY    59  50  72 W3        30.13F
INDIANA*       CLOUDY    57  55  94 CALM      30.16F
LATROBE        NOT AVBL
WASHINGTON CO* NOT AVBL
$$

PAZ004>006-010>012-017>019-024>028-033>037-041-042-045-046-049>053-270800-
CENTRAL PENNSYLVANIA

CITY           SKY/WX    TMP DP  RH WIND       PRES   REMARKS
BRADFORD       CLOUDY    55  53  93 W5        30.12S
DUBOIS         CLOUDY    57  54  89 W3        30.12F
CLEARFIELD     NOT AVBL
JOHNSTOWN      CLOUDY    56  51  84 W6        30.14F
ALTOONA        CLOUDY    57  52  83 CALM      30.13S
STATE COLLEGE  CLOUDY    60  55  83 W6        30.11F
WILLIAMSPORT   PTCLDY    60  56  86 W6        30.07F
SELINSGROVE    PTCLDY    58  56  93 CALM      30.08F
FT INDIANTOWN  PTCLDY    64  55  70 VRB3      30.07S
CAPITAL CITY   CLEAR     60  54  80 W7        30.07F
HARRISBURG     PTCLDY    64  55  72 CALM      30.06F
YORK           CLEAR     53  52  96 CALM      30.08F
$$

PAZ038>040-043-044-047-048-054-055-060>062-067>071-270800-
EASTERN PENNSYLVANIA

CITY           SKY/WX    TMP DP  RH WIND       PRES   REMARKS
SCRANTON       CLOUDY    64  55  72 W3        30.06F
MOUNT POCONO   CLOUDY    58  54  86 W6        30.07F
ALLENTOWN      CLOUDY    59  55  87 W5        30.05F
QUAKERTOWN*    SUNNY     57  54  88 CALM      30.06S
READING        PTCLDY    60  54  80 W3        30.05F
LANCASTER      CLEAR     58  54  86 NW6       30.06F
COATESVILLE    SUNNY     57  55  94 W5        30.07F
POTTSTOWN      CLEAR     59  55  87 CALM      30.06F
BLUE BELL      CLEAR     61  55  82 CALM      30.04F
DOYLESTOWN     CLEAR     61  54  77 NW3       30.03F
WILLOW GROVE   NOT AVBL
NORTH PHILA    CLEAR     65  53  65 NW6       30.05F
PHILADELPHIA   CLEAR     67  53  61 N5        30.05F
$$



USA.gov is the U.S. government's official web portal to all federal, state and local government web resources and services.